LAN8190 SBGR-KMIA

Flight info

Callsign LAN8190
Flight time 7h 49m
Altitude 38000
Route GERTU UL304 OPNUS UM417 KONKI UL304 BRUTI UM417 GIKVI/N0487F400 UM417 ISUNU UM409 VUMPI UL795 ALTIB UM779 ZEUSS VIICE2
Aircraft B789/H-SDE1E2E3FGHIJ2J3J4J5M1RWXY/LB1D1

Departure

Time 2026-05-06 12:18
Airport São Paulo/Guarulhos–Governor André Franco Montoro International Airport (SBGR)

Arrival

Time 2026-05-06 20:07
Airport Miami International Airport (KMIA)
Time Latitude Longitude Altitude Speed Heading
2026-05-06 12:12 -23.43220 -46.48155 2474 ft 0 kts 255°
2026-05-06 12:16 -23.43221 -46.48160 2474 ft 3 kts 255°
2026-05-06 12:16 -23.43234 -46.48211 2474 ft 11 kts 255°
2026-05-06 12:16 -23.43264 -46.48323 2474 ft 19 kts 239°
2026-05-06 12:17 -23.43384 -46.48333 2474 ft 21 kts 160°
2026-05-06 12:17 -23.43409 -46.48236 2474 ft 16 kts 77°
2026-05-06 12:17 -23.43316 -46.47874 2474 ft 92 kts 74°
2026-05-06 12:17 -23.43064 -46.46933 2475 ft 164 kts 73°
2026-05-06 12:18 -23.42681 -46.45557 2521 ft 210 kts 72°
2026-05-06 12:18 -23.42308 -46.44203 3878 ft 173 kts 72°
2026-05-06 12:18 -23.41933 -46.42960 4868 ft 176 kts 71°
2026-05-06 12:18 -23.41540 -46.41658 5514 ft 187 kts 72°
2026-05-06 12:19 -23.41131 -46.40265 6039 ft 201 kts 73°
2026-05-06 12:19 -23.40683 -46.38722 6462 ft 222 kts 73°
2026-05-06 12:19 -23.40191 -46.37054 6939 ft 241 kts 71°
2026-05-06 12:19 -23.39392 -46.35376 7445 ft 258 kts 60°
2026-05-06 12:20 -23.38441 -46.33670 8088 ft 268 kts 59°
2026-05-06 12:20 -23.37445 -46.31925 8814 ft 276 kts 59°
2026-05-06 12:20 -23.36141 -46.30363 9482 ft 287 kts 36°
2026-05-06 12:20 -23.34254 -46.29631 10269 ft 294 kts
2026-05-06 12:21 -23.32199 -46.29913 10894 ft 308 kts 342°
2026-05-06 12:21 -23.30348 -46.31201 11327 ft 328 kts 316°
2026-05-06 12:21 -23.29040 -46.33291 11829 ft 343 kts 298°
2026-05-06 12:21 -23.27881 -46.35629 12310 ft 360 kts 299°
2026-05-06 12:22 -23.26556 -46.38006 12875 ft 373 kts 302°
2026-05-06 12:22 -23.25089 -46.40372 13575 ft 381 kts 304°
2026-05-06 12:22 -23.23533 -46.42732 14345 ft 387 kts 306°
2026-05-06 12:22 -23.21919 -46.45102 15107 ft 393 kts 306°
2026-05-06 12:23 -23.20827 -46.46678 15617 ft 396 kts 306°
2026-05-06 12:23 -23.19152 -46.49082 16386 ft 400 kts 306°
2026-05-06 12:23 -23.17458 -46.51500 17145 ft 404 kts 306°
2026-05-06 12:23 -23.15741 -46.53945 17897 ft 408 kts 305°
2026-05-06 12:24 -23.14015 -46.56400 18602 ft 412 kts 305°
2026-05-06 12:24 -23.12264 -46.58888 19318 ft 416 kts 305°
2026-05-06 12:24 -23.10492 -46.61404 20038 ft 419 kts 305°
2026-05-06 12:24 -23.08713 -46.63927 20737 ft 423 kts 305°
2026-05-06 12:25 -23.06918 -46.66473 21425 ft 426 kts 305°
2026-05-06 12:25 -23.05108 -46.69037 22102 ft 429 kts 305°
2026-05-06 12:25 -23.03284 -46.71619 22732 ft 433 kts 305°
2026-05-06 12:25 -23.01440 -46.74228 23331 ft 437 kts 305°
2026-05-06 12:26 -22.99584 -46.76854 23920 ft 440 kts 304°
2026-05-06 12:26 -22.97714 -46.79498 24500 ft 444 kts 304°
2026-05-06 12:26 -22.95825 -46.82165 25042 ft 448 kts 304°
2026-05-06 12:26 -22.93946 -46.84819 25572 ft 452 kts 304°
2026-05-06 12:27 -22.91996 -46.87572 26111 ft 455 kts 303°
2026-05-06 12:27 -22.90063 -46.90299 26635 ft 459 kts 303°
2026-05-06 12:27 -22.88130 -46.93025 27143 ft 462 kts 303°
2026-05-06 12:27 -22.86134 -46.95839 27636 ft 466 kts 302°
2026-05-06 12:28 -22.84179 -46.98594 28111 ft 469 kts 302°
2026-05-06 12:28 -22.82181 -47.01408 28583 ft 473 kts 302°
2026-05-06 12:28 -22.80164 -47.04246 29013 ft 477 kts 302°
2026-05-06 12:28 -22.78138 -47.07097 29454 ft 480 kts 302°
2026-05-06 12:29 -22.76095 -47.09968 29894 ft 482 kts 301°
2026-05-06 12:29 -22.74045 -47.12849 30316 ft 485 kts 301°
2026-05-06 12:29 -22.71970 -47.15762 30712 ft 488 kts 301°
2026-05-06 12:29 -22.69885 -47.18688 31087 ft 492 kts 301°
2026-05-06 12:30 -22.67791 -47.21625 31485 ft 494 kts 301°
2026-05-06 12:30 -22.65692 -47.24566 31961 ft 495 kts 301°
2026-05-06 12:30 -22.63585 -47.27515 32463 ft 494 kts 300°
2026-05-06 12:30 -22.61485 -47.30452 32964 ft 494 kts 300°
2026-05-06 12:31 -22.59381 -47.33393 33458 ft 493 kts 300°
2026-05-06 12:31 -22.57280 -47.36331 33947 ft 492 kts 300°
2026-05-06 12:31 -22.55188 -47.39256 34389 ft 492 kts 300°
2026-05-06 12:31 -22.53095 -47.42177 34908 ft 490 kts 299°
2026-05-06 12:32 -22.51011 -47.45086 35415 ft 488 kts 299°
2026-05-06 12:32 -22.48937 -47.47978 35913 ft 486 kts 299°
2026-05-06 12:32 -22.46868 -47.50862 36394 ft 484 kts 299°
2026-05-06 12:32 -22.44811 -47.53729 36873 ft 481 kts 298°
2026-05-06 12:33 -22.42566 -47.56454 37249 ft 492 kts 308°
2026-05-06 12:33 -22.39891 -47.58790 37716 ft 497 kts 315°
2026-05-06 12:33 -22.37049 -47.60940 38046 ft 500 kts 317°
2026-05-06 12:33 -22.34193 -47.63012 38219 ft 501 kts 317°
2026-05-06 12:34 -22.28413 -47.67214 38275 ft 503 kts 317°
2026-05-06 12:34 -22.22623 -47.71503 38285 ft 503 kts 316°
2026-05-06 12:35 -22.16865 -47.75796 38276 ft 503 kts 316°
2026-05-06 12:35 -22.11110 -47.80088 38283 ft 503 kts 316°
2026-05-06 12:36 -22.05356 -47.84372 38289 ft 503 kts 317°
2026-05-06 12:36 -21.99595 -47.88657 38276 ft 503 kts 317°
2026-05-06 12:37 -21.93839 -47.92936 38281 ft 503 kts 317°
2026-05-06 12:37 -21.88078 -47.97215 38264 ft 503 kts 317°
2026-05-06 12:38 -21.82325 -48.01496 38257 ft 502 kts 316°
2026-05-06 12:38 -21.76633 -48.05787 38472 ft 504 kts 316°
2026-05-06 12:39 -21.73769 -48.07958 38778 ft 503 kts 316°
2026-05-06 12:39 -21.70908 -48.10132 39144 ft 501 kts 316°
2026-05-06 12:39 -21.68070 -48.12293 39485 ft 500 kts 316°
2026-05-06 12:39 -21.65236 -48.14453 39821 ft 498 kts 316°
2026-05-06 12:40 -21.62419 -48.16600 40103 ft 497 kts 316°
2026-05-06 12:40 -21.59593 -48.18755 40229 ft 498 kts 316°
2026-05-06 12:40 -21.53966 -48.23036 40240 ft 492 kts 316°
2026-05-06 12:41 -21.48395 -48.27271 40249 ft 490 kts 316°
2026-05-06 12:41 -21.42817 -48.31513 40251 ft 492 kts 316°
2026-05-06 12:42 -21.37234 -48.35750 40237 ft 491 kts 316°
2026-05-06 12:42 -21.31646 -48.39987 40248 ft 491 kts 316°
2026-05-06 12:43 -21.26100 -48.44189 40242 ft 493 kts 316°
2026-05-06 12:43 -21.20482 -48.48441 40238 ft 493 kts 316°
2026-05-06 12:44 -21.14877 -48.52678 40249 ft 493 kts 316°
2026-05-06 12:44 -21.09277 -48.56908 40238 ft 493 kts 316°
2026-05-06 12:45 -21.03671 -48.61139 40232 ft 493 kts 316°
2026-05-06 12:46 -20.95256 -48.67482 40242 ft 493 kts 316°
2026-05-06 12:46 -20.89649 -48.71703 40230 ft 493 kts 316°
2026-05-06 12:47 -20.84076 -48.75896 40242 ft 493 kts 317°
2026-05-06 12:47 -20.78466 -48.80112 40238 ft 493 kts 317°
2026-05-06 12:48 -20.72850 -48.84327 40228 ft 493 kts 317°
2026-05-06 12:48 -20.67235 -48.88540 40240 ft 493 kts 317°
2026-05-06 12:49 -20.61625 -48.92745 40233 ft 493 kts 317°
2026-05-06 12:49 -20.56010 -48.96949 40229 ft 493 kts 317°
2026-05-06 12:50 -20.50391 -49.01152 40242 ft 493 kts 317°
2026-05-06 12:50 -20.44781 -49.05345 40230 ft 493 kts 317°
2026-05-06 12:51 -20.39167 -49.09537 40235 ft 492 kts 317°
2026-05-06 12:51 -20.33563 -49.13716 40238 ft 491 kts 317°
2026-05-06 12:52 -20.27959 -49.17894 40229 ft 491 kts 317°
2026-05-06 12:52 -20.22393 -49.22040 40240 ft 491 kts 317°
2026-05-06 12:53 -20.16790 -49.26209 40235 ft 491 kts 317°
2026-05-06 12:53 -20.11189 -49.30372 40229 ft 491 kts 317°
2026-05-06 12:54 -20.05589 -49.34531 40243 ft 491 kts 317°
2026-05-06 12:54 -19.99974 -49.38697 40233 ft 491 kts 317°
2026-05-06 12:55 -19.94377 -49.42847 40233 ft 490 kts 318°
2026-05-06 12:55 -19.88789 -49.46986 40241 ft 490 kts 318°
2026-05-06 12:56 -19.83192 -49.51128 40229 ft 490 kts 318°
2026-05-06 12:56 -19.77606 -49.55259 40235 ft 490 kts 318°
2026-05-06 12:57 -19.72014 -49.59390 40252 ft 490 kts 318°
2026-05-06 12:57 -19.66416 -49.63522 40257 ft 490 kts 318°
2026-05-06 12:58 -19.60819 -49.67650 40246 ft 490 kts 318°
2026-05-06 12:58 -19.55221 -49.71775 40258 ft 490 kts 318°
2026-05-06 12:59 -19.49654 -49.75874 40257 ft 490 kts 318°
2026-05-06 12:59 -19.44057 -49.79991 40249 ft 490 kts 318°
2026-05-06 13:00 -19.38446 -49.84120 40263 ft 490 kts 318°
2026-05-06 13:00 -19.32900 -49.88248 40254 ft 490 kts 317°
2026-05-06 13:01 -19.27341 -49.92409 40253 ft 489 kts 317°
2026-05-06 13:01 -19.21789 -49.96581 40264 ft 489 kts 317°
2026-05-06 13:02 -19.16244 -50.00748 40251 ft 489 kts 317°
2026-05-06 13:02 -19.10705 -50.04907 40255 ft 486 kts 318°
2026-05-06 13:03 -19.05193 -50.09043 40263 ft 487 kts 318°
2026-05-06 13:03 -18.99664 -50.13189 40250 ft 487 kts 318°
2026-05-06 13:04 -18.94111 -50.17284 40256 ft 488 kts 319°
2026-05-06 13:04 -18.88508 -50.21333 40259 ft 488 kts 319°
2026-05-06 13:05 -18.82875 -50.25360 40256 ft 488 kts 320°
2026-05-06 13:05 -18.77292 -50.29331 40269 ft 487 kts 320°
2026-05-06 13:06 -18.71668 -50.33328 40256 ft 487 kts 320°
2026-05-06 13:06 -18.66047 -50.37318 40259 ft 487 kts 320°
2026-05-06 13:07 -18.60419 -50.41309 40263 ft 487 kts 320°
2026-05-06 13:07 -18.54787 -50.45300 40250 ft 487 kts 320°
2026-05-06 13:08 -18.49175 -50.49304 40258 ft 487 kts 319°
2026-05-06 13:08 -18.43573 -50.53331 40256 ft 487 kts 319°
2026-05-06 13:09 -18.37992 -50.57359 40244 ft 487 kts 319°
2026-05-06 13:09 -18.32395 -50.61404 40256 ft 487 kts 319°
2026-05-06 13:10 -18.26812 -50.65438 40247 ft 487 kts 319°
2026-05-06 13:10 -18.21230 -50.69467 40240 ft 486 kts 319°
2026-05-06 13:11 -18.15660 -50.73484 40252 ft 486 kts 319°
2026-05-06 13:11 -18.10129 -50.77470 40241 ft 486 kts 319°
2026-05-06 13:12 -18.04549 -50.81488 40236 ft 486 kts 319°
2026-05-06 13:12 -17.98968 -50.85506 40247 ft 486 kts 320°
2026-05-06 13:13 -17.93404 -50.89507 40232 ft 485 kts 320°
2026-05-06 13:13 -17.88777 -50.92830 40232 ft 485 kts 320°
2026-05-06 13:14 -17.83216 -50.96821 40240 ft 484 kts 320°
2026-05-06 13:14 -17.77657 -51.00809 40225 ft 484 kts 320°
2026-05-06 13:15 -17.72090 -51.04798 40230 ft 484 kts 320°
2026-05-06 13:15 -17.66538 -51.08774 40230 ft 483 kts 320°
2026-05-06 13:16 -17.60978 -51.12752 40217 ft 483 kts 320°
2026-05-06 13:16 -17.55463 -51.16695 40228 ft 482 kts 320°
2026-05-06 13:17 -17.49912 -51.20663 40216 ft 483 kts 320°
2026-05-06 13:17 -17.44366 -51.24623 40206 ft 482 kts 320°
2026-05-06 13:18 -17.38816 -51.28583 40219 ft 482 kts 320°
2026-05-06 13:18 -17.33279 -51.32535 40231 ft 482 kts 320°
2026-05-06 13:19 -17.27735 -51.36491 40232 ft 482 kts 320°
2026-05-06 13:19 -17.22190 -51.40446 40220 ft 482 kts 320°
2026-05-06 13:20 -17.16655 -51.44388 40225 ft 481 kts 320°
2026-05-06 13:20 -17.11119 -51.48330 40220 ft 482 kts 321°
2026-05-06 13:21 -17.05570 -51.52278 40210 ft 481 kts 321°
2026-05-06 13:21 -17.00074 -51.56184 40217 ft 481 kts 321°
2026-05-06 13:22 -16.94533 -51.60123 40210 ft 482 kts 321°
2026-05-06 13:22 -16.88992 -51.64055 40199 ft 481 kts 321°
2026-05-06 13:23 -16.83454 -51.67983 40210 ft 481 kts 321°
2026-05-06 13:23 -16.77918 -51.71906 40199 ft 480 kts 321°
2026-05-06 13:24 -16.72391 -51.75819 40192 ft 481 kts 321°
2026-05-06 13:24 -16.66856 -51.79734 40202 ft 481 kts 321°
2026-05-06 13:25 -16.61323 -51.83644 40187 ft 480 kts 321°
2026-05-06 13:25 -16.55784 -51.87556 40201 ft 480 kts 321°
2026-05-06 13:26 -16.50257 -51.91457 40194 ft 480 kts 321°
2026-05-06 13:26 -16.44765 -51.95330 40183 ft 480 kts 321°
2026-05-06 13:27 -16.39233 -51.99228 40192 ft 480 kts 321°
2026-05-06 13:27 -16.33704 -52.03121 40184 ft 479 kts 321°
2026-05-06 13:28 -16.28141 -52.06955 40174 ft 480 kts 322°
2026-05-06 13:28 -16.22555 -52.10759 40186 ft 480 kts 322°
2026-05-06 13:29 -16.16956 -52.14544 40173 ft 480 kts 322°
2026-05-06 13:29 -16.11347 -52.18327 40170 ft 480 kts 322°
2026-05-06 13:30 -16.05750 -52.22098 40181 ft 480 kts 322°
2026-05-06 13:30 -16.00134 -52.25879 40168 ft 480 kts 322°
2026-05-06 13:31 -15.94533 -52.29647 40172 ft 480 kts 323°
2026-05-06 13:31 -15.88925 -52.33418 40177 ft 480 kts 323°
2026-05-06 13:32 -15.83302 -52.37196 40165 ft 480 kts 323°
2026-05-06 13:32 -15.77707 -52.40952 40175 ft 479 kts 323°
2026-05-06 13:33 -15.72095 -52.44720 40174 ft 481 kts 323°
2026-05-06 13:33 -15.66478 -52.48487 40164 ft 480 kts 323°
2026-05-06 13:34 -15.60869 -52.52246 40177 ft 480 kts 323°
2026-05-06 13:34 -15.55302 -52.55974 40169 ft 480 kts 323°
2026-05-06 13:35 -15.49690 -52.59731 40165 ft 480 kts 323°
2026-05-06 13:35 -15.44081 -52.63482 40177 ft 480 kts 323°
2026-05-06 13:36 -15.38464 -52.67237 40164 ft 480 kts 323°
2026-05-06 13:36 -15.32845 -52.70990 40167 ft 480 kts 323°
2026-05-06 13:37 -15.27230 -52.74738 40173 ft 480 kts 323°
2026-05-06 13:37 -15.21612 -52.78486 40159 ft 480 kts 323°
2026-05-06 13:38 -15.16033 -52.82205 40167 ft 480 kts 323°
2026-05-06 13:38 -15.10422 -52.85943 40166 ft 480 kts 323°
2026-05-06 13:39 -15.04798 -52.89687 40155 ft 480 kts 323°
2026-05-06 13:39 -14.99181 -52.93425 40166 ft 480 kts 323°
2026-05-06 13:40 -14.93562 -52.97162 40159 ft 480 kts 323°
2026-05-06 13:40 -14.87940 -53.00899 40151 ft 480 kts 323°
2026-05-06 13:41 -14.82316 -53.04634 40162 ft 480 kts 323°
2026-05-06 13:41 -14.76693 -53.08366 40151 ft 480 kts 323°
2026-05-06 13:42 -14.70984 -53.11986 40149 ft 482 kts 326°
2026-05-06 13:42 -14.65185 -53.15482 40156 ft 482 kts 326°
2026-05-06 13:43 -14.59390 -53.18899 40142 ft 483 kts 327°
2026-05-06 13:43 -14.53548 -53.22315 40147 ft 482 kts 327°
2026-05-06 13:44 -14.47698 -53.25728 40149 ft 483 kts 327°
2026-05-06 13:44 -14.41853 -53.29137 40136 ft 482 kts 327°
2026-05-06 13:45 -14.36005 -53.32546 40145 ft 482 kts 327°
2026-05-06 13:45 -14.27232 -53.37655 40134 ft 483 kts 327°
2026-05-06 13:46 -14.21390 -53.41055 40136 ft 482 kts 327°
2026-05-06 13:46 -14.15587 -53.44430 40141 ft 482 kts 327°
2026-05-06 13:47 -14.09742 -53.47828 40127 ft 482 kts 327°
2026-05-06 13:47 -14.03894 -53.51225 40137 ft 482 kts 327°
2026-05-06 13:48 -13.98049 -53.54618 40130 ft 482 kts 327°
2026-05-06 13:48 -13.92202 -53.58011 40125 ft 483 kts 327°
2026-05-06 13:49 -13.86356 -53.61404 40135 ft 483 kts 327°
2026-05-06 13:49 -13.80504 -53.64799 40123 ft 483 kts 327°
2026-05-06 13:50 -13.74686 -53.68171 40124 ft 482 kts 327°
2026-05-06 13:50 -13.68795 -53.71585 40130 ft 483 kts 327°
2026-05-06 13:51 -13.62944 -53.74973 40117 ft 483 kts 327°
2026-05-06 13:51 -13.57131 -53.78337 40124 ft 482 kts 327°
2026-05-06 13:52 -13.51286 -53.81717 40124 ft 483 kts 327°
2026-05-06 13:52 -13.45423 -53.85106 40113 ft 483 kts 327°
2026-05-06 13:53 -13.39565 -53.88489 40124 ft 483 kts 327°
2026-05-06 13:53 -13.33716 -53.91866 40117 ft 483 kts 327°
2026-05-06 13:54 -13.27855 -53.95248 40111 ft 483 kts 327°
2026-05-06 13:54 -13.21993 -53.98629 40123 ft 483 kts 327°
2026-05-06 13:55 -13.16130 -54.02010 40111 ft 482 kts 328°
2026-05-06 13:55 -13.10291 -54.05375 40110 ft 481 kts 328°
2026-05-06 13:56 -13.04444 -54.08742 40120 ft 482 kts 328°
2026-05-06 13:56 -12.98604 -54.12102 40105 ft 482 kts 328°
2026-05-06 13:57 -12.92787 -54.15445 40112 ft 482 kts 328°
2026-05-06 13:57 -12.86938 -54.18805 40115 ft 483 kts 328°
2026-05-06 13:58 -12.81087 -54.22164 40101 ft 482 kts 328°
2026-05-06 13:58 -12.75226 -54.25527 40113 ft 482 kts 328°
2026-05-06 13:59 -12.69359 -54.28891 40108 ft 482 kts 328°
2026-05-06 13:59 -12.63496 -54.32251 40102 ft 483 kts 328°
2026-05-06 14:00 -12.57643 -54.35606 40112 ft 482 kts 328°
2026-05-06 14:00 -12.51820 -54.38940 40102 ft 483 kts 328°
2026-05-06 14:01 -12.45955 -54.42297 40101 ft 482 kts 328°
2026-05-06 14:01 -12.40095 -54.45650 40110 ft 483 kts 328°
2026-05-06 14:02 -12.34226 -54.49006 40097 ft 483 kts 328°
2026-05-06 14:02 -12.28356 -54.52360 40104 ft 483 kts 328°
2026-05-06 14:03 -12.23483 -54.55145 40107 ft 483 kts 328°
2026-05-06 14:03 -12.17616 -54.58495 40093 ft 482 kts 328°
2026-05-06 14:04 -12.11754 -54.61842 40104 ft 482 kts 328°
2026-05-06 14:04 -12.05902 -54.65181 40101 ft 482 kts 328°
2026-05-06 14:05 -12.00035 -54.68526 40092 ft 482 kts 328°
2026-05-06 14:05 -11.94177 -54.71865 40104 ft 482 kts 328°
2026-05-06 14:06 -11.88354 -54.75181 40096 ft 482 kts 328°
2026-05-06 14:06 -11.82502 -54.78512 40091 ft 481 kts 329°
2026-05-06 14:07 -11.76646 -54.81844 40103 ft 482 kts 329°
2026-05-06 14:07 -11.70787 -54.85177 40091 ft 481 kts 329°
2026-05-06 14:08 -11.64944 -54.88499 40093 ft 481 kts 329°
2026-05-06 14:08 -11.59095 -54.91823 40100 ft 481 kts 329°
2026-05-06 14:09 -11.53240 -54.95148 40086 ft 481 kts 329°
2026-05-06 14:09 -11.47402 -54.98462 40100 ft 481 kts 329°
2026-05-06 14:10 -11.41555 -55.01779 40105 ft 481 kts 329°
2026-05-06 14:10 -11.35713 -55.05093 40093 ft 481 kts 329°
2026-05-06 14:11 -11.29901 -55.08387 40102 ft 480 kts 329°
2026-05-06 14:11 -11.24063 -55.11695 40101 ft 480 kts 329°
2026-05-06 14:12 -11.18221 -55.15003 40092 ft 480 kts 329°
2026-05-06 14:12 -11.12384 -55.18308 40104 ft 480 kts 329°
2026-05-06 14:13 -11.06544 -55.21611 40096 ft 480 kts 329°
2026-05-06 14:13 -11.00703 -55.24913 40093 ft 480 kts 329°
2026-05-06 14:14 -10.94863 -55.28214 40104 ft 480 kts 329°
2026-05-06 14:14 -10.89020 -55.31514 40091 ft 480 kts 329°
2026-05-06 14:15 -10.83186 -55.34807 40096 ft 479 kts 329°
2026-05-06 14:15 -10.77388 -55.38079 40101 ft 480 kts 329°
2026-05-06 14:16 -10.71545 -55.41375 40088 ft 480 kts 329°
2026-05-06 14:16 -10.65710 -55.44664 40098 ft 479 kts 329°
2026-05-06 14:17 -10.59875 -55.47953 40095 ft 479 kts 329°
2026-05-06 14:17 -10.54045 -55.51236 40089 ft 479 kts 329°
2026-05-06 14:18 -10.48215 -55.54519 40107 ft 479 kts 330°
2026-05-06 14:18 -10.42379 -55.57803 40121 ft 479 kts 330°
2026-05-06 14:19 -10.36548 -55.61083 40111 ft 479 kts 330°
2026-05-06 14:19 -10.30751 -55.64343 40111 ft 479 kts 330°
2026-05-06 14:20 -10.24926 -55.67617 40120 ft 479 kts 330°
2026-05-06 14:20 -10.19097 -55.70892 40107 ft 479 kts 330°
2026-05-06 14:21 -10.13271 -55.74164 40115 ft 478 kts 330°
2026-05-06 14:21 -10.07450 -55.77431 40117 ft 479 kts 330°
2026-05-06 14:22 -10.01623 -55.80701 40106 ft 478 kts 330°
2026-05-06 14:22 -9.95799 -55.83968 40118 ft 478 kts 330°
2026-05-06 14:23 -9.89976 -55.87232 40113 ft 478 kts 330°
2026-05-06 14:23 -9.84148 -55.90499 40107 ft 478 kts 330°
2026-05-06 14:24 -9.78321 -55.93763 40120 ft 478 kts 330°
2026-05-06 14:24 -9.72493 -55.97022 40109 ft 479 kts 330°
2026-05-06 14:25 -9.66646 -56.00248 40110 ft 478 kts 330°
2026-05-06 14:25 -9.60822 -56.03439 40119 ft 478 kts 330°
2026-05-06 14:26 -9.54968 -56.06634 40107 ft 478 kts 330°
2026-05-06 14:26 -9.49107 -56.09829 40114 ft 478 kts 330°
2026-05-06 14:27 -9.43245 -56.13023 40117 ft 479 kts 331°
2026-05-06 14:27 -9.37378 -56.16217 40106 ft 479 kts 331°
2026-05-06 14:28 -9.31508 -56.19411 40118 ft 479 kts 331°
2026-05-06 14:28 -9.25643 -56.22603 40113 ft 479 kts 331°
2026-05-06 14:29 -9.19775 -56.25796 40106 ft 478 kts 331°
2026-05-06 14:29 -9.13906 -56.28987 40119 ft 479 kts 331°
2026-05-06 14:30 -9.08046 -56.32172 40108 ft 479 kts 331°
2026-05-06 14:30 -9.02175 -56.35362 40109 ft 479 kts 331°
2026-05-06 14:31 -8.96340 -56.38532 40118 ft 479 kts 331°
2026-05-06 14:31 -8.90467 -56.41722 40104 ft 479 kts 331°
2026-05-06 14:32 -8.84608 -56.44903 40112 ft 479 kts 331°
2026-05-06 14:32 -8.78726 -56.48095 40114 ft 479 kts 331°
2026-05-06 14:33 -8.72849 -56.51282 40102 ft 479 kts 331°
2026-05-06 14:33 -8.66977 -56.54466 40114 ft 479 kts 331°
2026-05-06 14:34 -8.61094 -56.57655 40108 ft 479 kts 331°
2026-05-06 14:34 -8.55216 -56.60839 40102 ft 479 kts 331°
2026-05-06 14:35 -8.49339 -56.64022 40114 ft 479 kts 331°
2026-05-06 14:35 -8.43501 -56.67183 40102 ft 479 kts 331°
2026-05-06 14:36 -8.37630 -56.70360 40103 ft 479 kts 331°
2026-05-06 14:36 -8.31757 -56.73538 40111 ft 479 kts 331°
2026-05-06 14:37 -8.25889 -56.76712 40097 ft 479 kts 331°
2026-05-06 14:37 -8.20006 -56.79893 40105 ft 479 kts 331°
2026-05-06 14:38 -8.14135 -56.83064 40105 ft 479 kts 331°
2026-05-06 14:38 -8.08256 -56.86238 40094 ft 478 kts 331°
2026-05-06 14:39 -8.02390 -56.89405 40105 ft 478 kts 331°
2026-05-06 14:39 -7.96515 -56.92578 40099 ft 478 kts 332°
2026-05-06 14:40 -7.90694 -56.95720 40091 ft 477 kts 332°
2026-05-06 14:40 -7.84838 -56.98879 40104 ft 478 kts 332°
2026-05-06 14:41 -7.78975 -57.02041 40094 ft 477 kts 332°
2026-05-06 14:41 -7.73079 -57.05221 40092 ft 477 kts 332°
2026-05-06 14:42 -7.67270 -57.08352 40101 ft 477 kts 332°
2026-05-06 14:42 -7.61398 -57.11515 40087 ft 477 kts 332°
2026-05-06 14:43 -7.55547 -57.14666 40093 ft 476 kts 332°
2026-05-06 14:43 -7.49713 -57.17807 40094 ft 476 kts 332°
2026-05-06 14:44 -7.43861 -57.20956 40082 ft 476 kts 332°
2026-05-06 14:45 -7.35092 -57.25674 40094 ft 476 kts 332°
2026-05-06 14:45 -7.29250 -57.28816 40080 ft 477 kts 332°
2026-05-06 14:46 -7.23404 -57.31960 40086 ft 476 kts 332°
2026-05-06 14:46 -7.17563 -57.35099 40088 ft 476 kts 332°
2026-05-06 14:47 -7.11710 -57.38244 40075 ft 476 kts 332°
2026-05-06 14:47 -7.05864 -57.41385 40086 ft 476 kts 332°
2026-05-06 14:48 -7.00018 -57.44525 40080 ft 477 kts 332°
2026-05-06 14:48 -6.94159 -57.47671 40075 ft 477 kts 332°
2026-05-06 14:49 -6.88315 -57.50807 40084 ft 476 kts 332°
2026-05-06 14:49 -6.82504 -57.53926 40075 ft 476 kts 332°
2026-05-06 14:50 -6.76654 -57.57064 40071 ft 476 kts 332°
2026-05-06 14:50 -6.70793 -57.60206 40084 ft 478 kts 332°
2026-05-06 14:51 -6.64926 -57.63351 40069 ft 477 kts 332°
2026-05-06 14:51 -6.59075 -57.66488 40073 ft 477 kts 332°
2026-05-06 14:52 -6.54206 -57.69096 40079 ft 477 kts 332°
2026-05-06 14:52 -6.48341 -57.72238 40061 ft 477 kts 332°
2026-05-06 14:53 -6.42477 -57.75380 40062 ft 478 kts 332°
2026-05-06 14:53 -6.36596 -57.78528 40070 ft 478 kts 332°
2026-05-06 14:54 -6.30725 -57.81671 40056 ft 478 kts 332°
2026-05-06 14:54 -6.24858 -57.84812 40065 ft 478 kts 332°
2026-05-06 14:55 -6.18992 -57.87952 40064 ft 478 kts 332°
2026-05-06 14:55 -6.13158 -57.91073 40054 ft 478 kts 332°
2026-05-06 14:56 -6.07255 -57.94230 40067 ft 478 kts 332°
2026-05-06 14:56 -6.01413 -57.97353 40059 ft 478 kts 332°
2026-05-06 14:57 -5.95504 -58.00512 40056 ft 478 kts 332°
2026-05-06 14:57 -5.89662 -58.03633 40067 ft 478 kts 332°
2026-05-06 14:58 -5.83784 -58.06774 40055 ft 478 kts 332°
2026-05-06 14:58 -5.77911 -58.09911 40059 ft 478 kts 332°
2026-05-06 14:59 -5.72044 -58.13044 40066 ft 478 kts 332°
2026-05-06 14:59 -5.66173 -58.16178 40052 ft 478 kts 332°
2026-05-06 15:00 -5.60296 -58.19315 40064 ft 478 kts 332°
2026-05-06 15:00 -5.54427 -58.22447 40062 ft 478 kts 332°
2026-05-06 15:01 -5.48556 -58.25579 40053 ft 477 kts 332°
2026-05-06 15:01 -5.42691 -58.28707 40067 ft 477 kts 332°
2026-05-06 15:02 -5.36869 -58.31812 40058 ft 477 kts 332°
2026-05-06 15:02 -5.31006 -58.34936 40056 ft 476 kts 333°
2026-05-06 15:03 -5.25156 -58.38052 40068 ft 476 kts 333°
2026-05-06 15:03 -5.19296 -58.41175 40056 ft 476 kts 333°
2026-05-06 15:04 -5.13445 -58.44292 40061 ft 476 kts 333°
2026-05-06 15:04 -5.07599 -58.47406 40068 ft 476 kts 333°
2026-05-06 15:05 -5.01754 -58.50519 40056 ft 476 kts 332°
2026-05-06 15:05 -4.95947 -58.53614 40066 ft 475 kts 332°
2026-05-06 15:06 -4.90106 -58.56726 40066 ft 475 kts 332°
2026-05-06 15:06 -4.84266 -58.59835 40058 ft 475 kts 332°
2026-05-06 15:07 -4.78435 -58.62938 40071 ft 475 kts 332°
2026-05-06 15:07 -4.72603 -58.66041 40064 ft 475 kts 332°
2026-05-06 15:08 -4.66767 -58.69146 40063 ft 475 kts 332°
2026-05-06 15:08 -4.60937 -58.72246 40074 ft 475 kts 332°
2026-05-06 15:09 -4.55078 -58.75335 40062 ft 475 kts 333°
2026-05-06 15:09 -4.49223 -58.78395 40069 ft 475 kts 333°
2026-05-06 15:10 -4.43395 -58.81428 40075 ft 475 kts 333°
2026-05-06 15:10 -4.37533 -58.84476 40063 ft 475 kts 333°
2026-05-06 15:11 -4.31664 -58.87526 40075 ft 475 kts 333°
2026-05-06 15:11 -4.25803 -58.90571 40074 ft 475 kts 333°
2026-05-06 15:12 -4.19926 -58.93624 40061 ft 475 kts 333°
2026-05-06 15:12 -4.14060 -58.96671 40071 ft 475 kts 333°
2026-05-06 15:13 -4.08185 -58.99722 40073 ft 475 kts 333°
2026-05-06 15:13 -4.02306 -59.02774 40064 ft 475 kts 333°
2026-05-06 15:14 -3.96443 -59.05818 40078 ft 475 kts 333°
2026-05-06 15:14 -3.90569 -59.08867 40071 ft 475 kts 333°
2026-05-06 15:15 -3.84696 -59.11916 40070 ft 475 kts 333°
2026-05-06 15:15 -3.78863 -59.14943 40082 ft 476 kts 333°
2026-05-06 15:16 -3.72979 -59.17996 40071 ft 476 kts 333°
2026-05-06 15:16 -3.67104 -59.21043 40076 ft 476 kts 333°
2026-05-06 15:17 -3.61224 -59.24093 40083 ft 476 kts 333°
2026-05-06 15:17 -3.55341 -59.27144 40071 ft 476 kts 333°
2026-05-06 15:18 -3.49464 -59.30192 40081 ft 477 kts 333°
2026-05-06 15:18 -3.43553 -59.33253 40082 ft 477 kts 333°
2026-05-06 15:19 -3.37665 -59.36305 40072 ft 477 kts 333°
2026-05-06 15:19 -3.31773 -59.39364 40086 ft 477 kts 333°
2026-05-06 15:20 -3.25879 -59.42424 40080 ft 477 kts 333°
2026-05-06 15:20 -3.19990 -59.45481 40076 ft 477 kts 333°
2026-05-06 15:21 -3.14100 -59.48535 40089 ft 477 kts 333°
2026-05-06 15:21 -3.08229 -59.51590 40077 ft 476 kts 333°
2026-05-06 15:22 -3.02363 -59.54678 40083 ft 476 kts 332°
2026-05-06 15:22 -2.96510 -59.57779 40087 ft 476 kts 332°
2026-05-06 15:23 -2.90661 -59.60886 40075 ft 476 kts 332°
2026-05-06 15:23 -2.84806 -59.63998 40087 ft 476 kts 332°
2026-05-06 15:24 -2.78970 -59.67100 40082 ft 475 kts 332°
2026-05-06 15:24 -2.73168 -59.70184 40077 ft 475 kts 332°
2026-05-06 15:25 -2.67336 -59.73283 40089 ft 475 kts 332°
2026-05-06 15:25 -2.61495 -59.76386 40079 ft 475 kts 333°
2026-05-06 15:26 -2.55667 -59.79483 40080 ft 474 kts 333°
2026-05-06 15:26 -2.49830 -59.82583 40088 ft 474 kts 333°
2026-05-06 15:27 -2.43996 -59.85682 40075 ft 475 kts 333°
2026-05-06 15:27 -2.38173 -59.88776 40082 ft 474 kts 333°
2026-05-06 15:28 -2.32339 -59.91874 40083 ft 474 kts 333°
2026-05-06 15:28 -2.26616 -59.95158 40056 ft 475 kts 325°
2026-05-06 15:29 -2.21498 -59.99267 40085 ft 476 kts 320°
2026-05-06 15:29 -2.16553 -60.03674 40071 ft 476 kts 318°
2026-05-06 15:30 -2.11718 -60.08210 40083 ft 476 kts 317°
2026-05-06 15:30 -2.06923 -60.12776 40080 ft 476 kts 317°
2026-05-06 15:31 -2.02133 -60.17349 40073 ft 476 kts 317°
2026-05-06 15:31 -1.97341 -60.21924 40085 ft 476 kts 317°
2026-05-06 15:32 -1.90150 -60.28781 40070 ft 476 kts 317°
2026-05-06 15:32 -1.85354 -60.33352 40082 ft 476 kts 317°
2026-05-06 15:33 -1.80557 -60.37929 40076 ft 477 kts 317°
2026-05-06 15:33 -1.75759 -60.42509 40070 ft 477 kts 317°
2026-05-06 15:34 -1.70985 -60.47066 40082 ft 477 kts 317°
2026-05-06 15:34 -1.66185 -60.51646 40070 ft 478 kts 317°
2026-05-06 15:35 -1.61374 -60.56237 40073 ft 478 kts 317°
2026-05-06 15:35 -1.56560 -60.60830 40078 ft 478 kts 317°
2026-05-06 15:36 -1.51746 -60.65423 40065 ft 479 kts 317°
2026-05-06 15:36 -1.46927 -60.70019 40075 ft 479 kts 317°
2026-05-06 15:37 -1.42104 -60.74621 40088 ft 479 kts 317°
2026-05-06 15:37 -1.37299 -60.79243 40083 ft 479 kts 316°
2026-05-06 15:38 -1.32540 -60.83918 40078 ft 479 kts 316°
2026-05-06 15:38 -1.27833 -60.88583 40090 ft 480 kts 315°
2026-05-06 15:39 -1.23101 -60.93287 40079 ft 480 kts 315°
2026-05-06 15:39 -1.18362 -60.98001 40083 ft 480 kts 315°
2026-05-06 15:40 -1.14429 -61.01914 40090 ft 480 kts 315°
2026-05-06 15:40 -1.09692 -61.06625 40077 ft 480 kts 315°
2026-05-06 15:41 -1.04949 -61.11341 40084 ft 481 kts 315°
2026-05-06 15:41 -1.00214 -61.16050 40088 ft 481 kts 315°
2026-05-06 15:42 -0.95468 -61.20767 40076 ft 481 kts 315°
2026-05-06 15:42 -0.90760 -61.25447 40089 ft 481 kts 315°
2026-05-06 15:43 -0.86011 -61.30168 40082 ft 481 kts 315°
2026-05-06 15:43 -0.81266 -61.34886 40078 ft 481 kts 315°
2026-05-06 15:44 -0.76520 -61.39605 40090 ft 482 kts 315°
2026-05-06 15:44 -0.71765 -61.44332 40078 ft 482 kts 315°
2026-05-06 15:45 -0.67013 -61.49056 40082 ft 482 kts 315°
2026-05-06 15:45 -0.62260 -61.53782 40089 ft 482 kts 315°
2026-05-06 15:46 -0.57506 -61.58508 40076 ft 482 kts 315°
2026-05-06 15:46 -0.52755 -61.63231 40086 ft 482 kts 315°
2026-05-06 15:47 -0.48024 -61.67934 40087 ft 484 kts 315°
2026-05-06 15:47 -0.43252 -61.72678 40075 ft 483 kts 315°
2026-05-06 15:48 -0.38489 -61.77413 40088 ft 483 kts 315°
2026-05-06 15:48 -0.33726 -61.82147 40082 ft 484 kts 315°
2026-05-06 15:49 -0.28955 -61.86890 40079 ft 484 kts 315°
2026-05-06 15:49 -0.24184 -61.91632 40090 ft 484 kts 315°
2026-05-06 15:50 -0.19410 -61.96377 40078 ft 484 kts 315°
2026-05-06 15:50 -0.14636 -62.01122 40082 ft 484 kts 315°
2026-05-06 15:51 -0.09861 -62.05868 40089 ft 484 kts 315°
2026-05-06 15:51 -0.05121 -62.10580 40076 ft 484 kts 315°
2026-05-06 15:52 -0.00344 -62.15328 40086 ft 484 kts 315°
2026-05-06 15:52 0.04431 -62.20074 40085 ft 484 kts 315°
2026-05-06 15:53 0.09205 -62.24820 40076 ft 484 kts 315°
2026-05-06 15:53 0.13972 -62.29558 40088 ft 484 kts 315°
2026-05-06 15:54 0.18759 -62.34316 40084 ft 485 kts 315°
2026-05-06 15:54 0.23538 -62.39067 40078 ft 485 kts 315°
2026-05-06 15:55 0.28319 -62.43819 40091 ft 485 kts 315°
2026-05-06 15:55 0.33097 -62.48569 40077 ft 485 kts 315°
2026-05-06 15:56 0.37875 -62.53318 40086 ft 485 kts 315°
2026-05-06 15:56 0.42663 -62.58077 40086 ft 485 kts 315°
2026-05-06 15:57 0.47421 -62.62807 40078 ft 486 kts 315°
2026-05-06 15:57 0.52217 -62.67574 40090 ft 486 kts 315°
2026-05-06 15:58 0.57006 -62.72335 40080 ft 486 kts 315°
2026-05-06 15:58 0.61798 -62.77099 40081 ft 486 kts 315°
2026-05-06 15:59 0.66588 -62.81861 40090 ft 486 kts 315°
2026-05-06 15:59 0.71390 -62.86636 40077 ft 486 kts 315°
2026-05-06 16:00 0.76148 -62.91366 40085 ft 486 kts 315°
2026-05-06 16:00 0.80947 -62.96137 40088 ft 487 kts 315°
2026-05-06 16:01 0.85759 -63.00922 40075 ft 487 kts 315°
2026-05-06 16:01 0.90552 -63.05690 40087 ft 487 kts 315°
2026-05-06 16:02 0.95357 -63.10471 40085 ft 487 kts 315°
2026-05-06 16:02 1.00162 -63.15250 40077 ft 487 kts 315°
2026-05-06 16:03 1.04956 -63.20017 40089 ft 486 kts 315°
2026-05-06 16:03 1.09743 -63.24778 40079 ft 486 kts 315°
2026-05-06 16:04 1.14538 -63.29547 40082 ft 486 kts 315°
2026-05-06 16:04 1.19382 -63.34266 40086 ft 486 kts 319°
2026-05-06 16:05 1.24590 -63.38501 40078 ft 486 kts 322°
2026-05-06 16:05 1.29967 -63.42589 40081 ft 486 kts 323°
2026-05-06 16:06 1.35371 -63.46661 40090 ft 486 kts 323°
2026-05-06 16:06 1.40750 -63.50731 40076 ft 485 kts 323°
2026-05-06 16:07 1.46118 -63.54800 40086 ft 485 kts 323°
2026-05-06 16:07 1.51499 -63.58874 40086 ft 485 kts 323°
2026-05-06 16:08 1.56878 -63.62944 40076 ft 485 kts 323°
2026-05-06 16:08 1.62260 -63.67017 40089 ft 485 kts 323°
2026-05-06 16:09 1.67629 -63.71079 40082 ft 484 kts 323°
2026-05-06 16:09 1.72997 -63.75142 40079 ft 484 kts 323°
2026-05-06 16:10 1.78360 -63.79202 40090 ft 484 kts 323°
2026-05-06 16:10 1.83725 -63.83262 40078 ft 483 kts 323°
2026-05-06 16:11 1.89043 -63.87287 40083 ft 483 kts 323°
2026-05-06 16:11 1.94400 -63.91340 40089 ft 483 kts 323°
2026-05-06 16:12 1.99850 -63.95276 40077 ft 483 kts 326°
2026-05-06 16:12 2.05419 -63.99029 40084 ft 483 kts 326°
2026-05-06 16:13 2.11030 -64.02734 40088 ft 483 kts 327°
2026-05-06 16:13 2.16641 -64.06425 40075 ft 483 kts 326°
2026-05-06 16:14 2.22259 -64.10131 40088 ft 483 kts 326°
2026-05-06 16:14 2.27872 -64.13832 40084 ft 483 kts 326°
2026-05-06 16:15 2.33494 -64.17536 40077 ft 482 kts 326°
2026-05-06 16:15 2.39104 -64.21231 40091 ft 483 kts 326°
2026-05-06 16:16 2.44680 -64.24903 40080 ft 483 kts 326°
2026-05-06 16:16 2.50287 -64.28597 40082 ft 483 kts 326°
2026-05-06 16:17 2.55899 -64.32294 40089 ft 483 kts 326°
2026-05-06 16:17 2.61520 -64.35996 40076 ft 482 kts 326°
2026-05-06 16:18 2.67131 -64.39692 40076 ft 484 kts 326°
2026-05-06 16:18 2.72748 -64.43395 40062 ft 483 kts 326°
2026-05-06 16:19 2.78350 -64.47087 40072 ft 483 kts 326°
2026-05-06 16:19 2.83973 -64.50793 40072 ft 483 kts 326°
2026-05-06 16:20 2.89540 -64.54463 40051 ft 482 kts 326°
2026-05-06 16:20 2.95147 -64.58160 40045 ft 482 kts 326°
2026-05-06 16:21 3.00752 -64.61856 40058 ft 483 kts 326°
2026-05-06 16:21 3.06373 -64.65564 40048 ft 483 kts 326°
2026-05-06 16:22 3.11987 -64.69267 40049 ft 483 kts 326°
2026-05-06 16:22 3.17587 -64.72961 40058 ft 482 kts 326°
2026-05-06 16:23 3.23189 -64.76657 40047 ft 482 kts 326°
2026-05-06 16:23 3.28790 -64.80353 40055 ft 482 kts 326°
2026-05-06 16:24 3.34391 -64.84049 40058 ft 482 kts 326°
2026-05-06 16:24 3.39958 -64.87723 40048 ft 482 kts 326°
2026-05-06 16:25 3.45550 -64.91414 40069 ft 482 kts 326°
2026-05-06 16:25 3.51156 -64.95114 40078 ft 483 kts 326°
2026-05-06 16:26 3.56774 -64.98822 40065 ft 483 kts 326°
2026-05-06 16:26 3.62385 -65.02526 40073 ft 482 kts 326°
2026-05-06 16:27 3.67986 -65.06225 40076 ft 483 kts 326°
2026-05-06 16:27 3.73588 -65.09926 40064 ft 483 kts 326°
2026-05-06 16:28 3.78247 -65.13004 40074 ft 482 kts 326°
2026-05-06 16:28 3.83850 -65.16706 40075 ft 483 kts 326°
2026-05-06 16:29 3.89446 -65.20404 40063 ft 483 kts 326°
2026-05-06 16:29 3.95063 -65.24119 40049 ft 483 kts 326°
2026-05-06 16:30 3.99725 -65.27203 40055 ft 484 kts 326°
2026-05-06 16:30 4.06283 -65.31539 40055 ft 482 kts 326°
2026-05-06 16:31 4.11881 -65.35241 40049 ft 483 kts 326°
2026-05-06 16:31 4.17450 -65.38925 40061 ft 483 kts 326°
2026-05-06 16:32 4.23057 -65.42634 40050 ft 483 kts 326°
2026-05-06 16:32 4.28656 -65.46338 40053 ft 482 kts 326°
2026-05-06 16:33 4.34259 -65.50046 40060 ft 483 kts 326°
2026-05-06 16:34 4.42665 -65.55610 40048 ft 482 kts 326°
2026-05-06 16:34 4.48266 -65.59318 40060 ft 483 kts 326°
2026-05-06 16:35 4.53872 -65.63031 40048 ft 483 kts 326°
2026-05-06 16:35 4.59478 -65.66743 40051 ft 483 kts 326°
2026-05-06 16:36 4.65044 -65.70431 40057 ft 483 kts 326°
2026-05-06 16:36 4.70643 -65.74139 40044 ft 482 kts 326°
2026-05-06 16:37 4.76246 -65.77851 40054 ft 482 kts 326°
2026-05-06 16:37 4.81844 -65.81562 40052 ft 483 kts 326°
2026-05-06 16:38 4.87442 -65.85274 40042 ft 482 kts 326°
2026-05-06 16:38 4.93038 -65.88985 40056 ft 482 kts 326°
2026-05-06 16:39 4.98634 -65.92697 40046 ft 482 kts 326°
2026-05-06 16:39 5.04216 -65.96401 40044 ft 481 kts 326°
2026-05-06 16:40 5.09776 -66.00090 40054 ft 482 kts 326°
2026-05-06 16:40 5.15368 -66.03801 40041 ft 481 kts 326°
2026-05-06 16:41 5.20947 -66.07504 40045 ft 481 kts 326°
2026-05-06 16:41 5.26547 -66.11222 40050 ft 482 kts 326°
2026-05-06 16:42 5.32127 -66.14928 40036 ft 481 kts 326°
2026-05-06 16:42 5.37714 -66.18639 40047 ft 481 kts 326°
2026-05-06 16:43 5.43302 -66.22351 40042 ft 481 kts 326°
2026-05-06 16:43 5.48878 -66.26057 40033 ft 480 kts 326°
2026-05-06 16:44 5.54456 -66.29764 40046 ft 481 kts 326°
2026-05-06 16:44 5.59996 -66.33448 40035 ft 481 kts 326°
2026-05-06 16:45 5.65577 -66.37159 40034 ft 481 kts 326°
2026-05-06 16:45 5.71152 -66.40867 40043 ft 481 kts 326°
2026-05-06 16:46 5.76731 -66.44579 40029 ft 481 kts 326°
2026-05-06 16:46 5.82308 -66.48291 40035 ft 481 kts 326°
2026-05-06 16:47 5.87883 -66.52001 40037 ft 481 kts 326°
2026-05-06 16:47 5.93464 -66.55717 40025 ft 481 kts 326°
2026-05-06 16:48 5.99040 -66.59430 40036 ft 481 kts 326°
2026-05-06 16:48 6.04607 -66.63139 40031 ft 481 kts 326°
2026-05-06 16:49 6.10187 -66.66857 40024 ft 481 kts 326°
2026-05-06 16:49 6.15755 -66.70567 40036 ft 481 kts 326°
2026-05-06 16:50 6.21350 -66.74298 40025 ft 482 kts 326°
2026-05-06 16:50 6.26933 -66.78021 40020 ft 482 kts 326°
2026-05-06 16:51 6.32519 -66.81747 40033 ft 481 kts 326°
2026-05-06 16:51 6.38059 -66.85442 40021 ft 481 kts 326°
2026-05-06 16:52 6.43643 -66.89168 40026 ft 482 kts 326°
2026-05-06 16:52 6.49233 -66.92900 40031 ft 482 kts 326°
2026-05-06 16:53 6.54827 -66.96632 40019 ft 482 kts 326°
2026-05-06 16:53 6.60423 -67.00363 40031 ft 482 kts 326°
2026-05-06 16:54 6.66013 -67.04090 40026 ft 482 kts 326°
2026-05-06 16:54 6.71613 -67.07823 40021 ft 482 kts 326°
2026-05-06 16:55 6.77205 -67.11552 40034 ft 482 kts 326°
2026-05-06 16:55 6.82800 -67.15284 40023 ft 482 kts 326°
2026-05-06 16:56 6.88397 -67.19018 40026 ft 482 kts 326°
2026-05-06 16:56 6.93959 -67.22730 40034 ft 482 kts 326°
2026-05-06 16:57 6.99544 -67.26458 40021 ft 482 kts 326°
2026-05-06 16:57 7.05143 -67.30199 40032 ft 482 kts 326°
2026-05-06 16:58 7.10732 -67.33935 40032 ft 482 kts 326°
2026-05-06 16:58 7.16324 -67.37673 40023 ft 482 kts 326°
2026-05-06 16:59 7.21903 -67.41404 40037 ft 482 kts 326°
2026-05-06 16:59 7.27505 -67.45152 40030 ft 482 kts 326°
2026-05-06 17:00 7.33091 -67.48891 40028 ft 482 kts 326°
2026-05-06 17:00 7.38675 -67.52634 40041 ft 482 kts 326°
2026-05-06 17:01 7.44267 -67.56385 40031 ft 482 kts 326°
2026-05-06 17:01 7.49813 -67.60105 40034 ft 481 kts 326°
2026-05-06 17:02 7.55380 -67.63842 40044 ft 482 kts 326°
2026-05-06 17:02 7.60969 -67.67593 40031 ft 482 kts 326°
2026-05-06 17:03 7.66544 -67.71337 40042 ft 481 kts 326°
2026-05-06 17:03 7.72124 -67.75085 40044 ft 482 kts 326°
2026-05-06 17:04 7.77734 -67.78855 40034 ft 481 kts 326°
2026-05-06 17:04 7.83317 -67.82610 40049 ft 482 kts 326°
2026-05-06 17:05 7.88885 -67.86356 40040 ft 482 kts 326°
2026-05-06 17:05 7.94465 -67.90110 40042 ft 481 kts 326°
2026-05-06 17:06 8.00001 -67.93835 40057 ft 481 kts 326°
2026-05-06 17:06 8.05579 -67.97589 40074 ft 482 kts 326°
2026-05-06 17:07 8.11148 -68.01340 40075 ft 482 kts 326°
2026-05-06 17:07 8.16727 -68.05098 40068 ft 481 kts 326°
2026-05-06 17:08 8.22297 -68.08851 40082 ft 481 kts 326°
2026-05-06 17:08 8.27864 -68.12604 40077 ft 481 kts 326°
2026-05-06 17:09 8.33430 -68.16358 40076 ft 481 kts 326°
2026-05-06 17:09 8.38994 -68.20111 40089 ft 481 kts 326°
2026-05-06 17:10 8.44562 -68.23869 40079 ft 481 kts 326°
2026-05-06 17:10 8.50121 -68.27621 40085 ft 480 kts 326°
2026-05-06 17:11 8.55669 -68.31367 40094 ft 480 kts 326°
2026-05-06 17:11 8.61223 -68.35119 40082 ft 480 kts 326°
2026-05-06 17:12 8.66733 -68.38842 40094 ft 479 kts 326°
2026-05-06 17:12 8.72264 -68.42579 40095 ft 479 kts 326°
2026-05-06 17:13 8.77801 -68.46322 40087 ft 479 kts 326°
2026-05-06 17:13 8.83341 -68.50070 40102 ft 478 kts 326°
2026-05-06 17:14 8.88876 -68.53816 40096 ft 478 kts 326°
2026-05-06 17:14 8.94401 -68.57556 40096 ft 478 kts 326°
2026-05-06 17:15 8.99922 -68.61296 40108 ft 478 kts 326°
2026-05-06 17:15 9.04514 -68.64408 40100 ft 478 kts 326°
2026-05-06 17:16 9.10026 -68.68142 40102 ft 477 kts 326°
2026-05-06 17:16 9.15539 -68.71881 40113 ft 477 kts 326°
2026-05-06 17:17 9.21049 -68.75618 40103 ft 477 kts 326°
2026-05-06 17:17 9.26550 -68.79351 40111 ft 476 kts 326°
2026-05-06 17:18 9.32060 -68.83090 40119 ft 477 kts 326°
2026-05-06 17:18 9.37563 -68.86825 40107 ft 475 kts 325°
2026-05-06 17:19 9.43059 -68.90557 40121 ft 476 kts 325°
2026-05-06 17:19 9.48552 -68.94289 40125 ft 476 kts 325°
2026-05-06 17:20 9.54017 -68.98004 40116 ft 476 kts 325°
2026-05-06 17:20 9.59511 -69.01740 40131 ft 476 kts 325°
2026-05-06 17:21 9.65012 -69.05481 40131 ft 476 kts 325°
2026-05-06 17:21 9.70511 -69.09223 40126 ft 476 kts 325°
2026-05-06 17:22 9.76015 -69.12969 40141 ft 476 kts 325°
2026-05-06 17:22 9.81510 -69.16711 40135 ft 476 kts 325°
2026-05-06 17:23 9.87008 -69.20457 40136 ft 476 kts 325°
2026-05-06 17:23 9.92516 -69.24210 40147 ft 476 kts 325°
2026-05-06 17:24 9.97974 -69.27931 40136 ft 476 kts 325°
2026-05-06 17:24 10.03470 -69.31679 40144 ft 474 kts 325°
2026-05-06 17:25 10.08934 -69.35409 40147 ft 474 kts 325°
2026-05-06 17:25 10.14409 -69.39147 40135 ft 474 kts 325°
2026-05-06 17:26 10.19879 -69.42882 40142 ft 474 kts 325°
2026-05-06 17:26 10.25349 -69.46618 40138 ft 474 kts 325°
2026-05-06 17:27 10.30836 -69.50367 40124 ft 474 kts 325°
2026-05-06 17:27 10.36304 -69.54107 40124 ft 474 kts 325°
2026-05-06 17:28 10.41779 -69.57853 40114 ft 474 kts 325°
2026-05-06 17:28 10.47207 -69.61565 40099 ft 473 kts 325°
2026-05-06 17:29 10.52672 -69.65306 40087 ft 474 kts 325°
2026-05-06 17:29 10.58144 -69.69054 40071 ft 474 kts 325°
2026-05-06 17:30 10.63620 -69.72798 40053 ft 474 kts 325°
2026-05-06 17:30 10.69077 -69.76534 40036 ft 473 kts 325°
2026-05-06 17:31 10.74539 -69.80281 40022 ft 473 kts 325°
2026-05-06 17:31 10.79994 -69.84026 40007 ft 473 kts 325°
2026-05-06 17:32 10.85443 -69.87769 39995 ft 472 kts 324°
2026-05-06 17:32 10.90881 -69.91507 39990 ft 472 kts 324°
2026-05-06 17:33 10.96319 -69.95246 39983 ft 471 kts 324°
2026-05-06 17:33 11.01755 -69.98986 39976 ft 471 kts 324°
2026-05-06 17:34 11.07150 -70.02695 39979 ft 471 kts 324°
2026-05-06 17:34 11.12576 -70.06427 39968 ft 471 kts 324°
2026-05-06 17:35 11.18011 -70.10168 39964 ft 471 kts 324°
2026-05-06 17:35 11.23434 -70.13901 39970 ft 470 kts 324°
2026-05-06 17:36 11.31565 -70.19502 39950 ft 470 kts 324°
2026-05-06 17:36 11.36981 -70.23234 39947 ft 469 kts 324°
2026-05-06 17:37 11.42391 -70.26965 39950 ft 469 kts 324°
2026-05-06 17:37 11.47802 -70.30699 39937 ft 469 kts 324°
2026-05-06 17:38 11.53210 -70.34430 39940 ft 468 kts 324°
2026-05-06 17:38 11.58569 -70.38131 39946 ft 469 kts 324°
2026-05-06 17:39 11.63967 -70.41874 39932 ft 469 kts 324°
2026-05-06 17:39 11.69358 -70.45614 39943 ft 468 kts 324°
2026-05-06 17:40 11.74755 -70.49354 39941 ft 469 kts 324°
2026-05-06 17:40 11.80150 -70.53094 39935 ft 468 kts 324°
2026-05-06 17:41 11.85544 -70.56836 39951 ft 469 kts 324°
2026-05-06 17:41 11.90939 -70.60581 39947 ft 469 kts 324°
2026-05-06 17:42 11.96327 -70.64321 39946 ft 468 kts 324°
2026-05-06 17:42 12.01716 -70.68059 39961 ft 467 kts 324°
2026-05-06 17:43 12.07042 -70.71756 39948 ft 465 kts 324°
2026-05-06 17:43 12.12412 -70.75489 39960 ft 466 kts 324°
2026-05-06 17:44 12.17773 -70.79216 39962 ft 466 kts 324°
2026-05-06 17:44 12.23136 -70.82946 39953 ft 466 kts 324°
2026-05-06 17:45 12.28498 -70.86676 39967 ft 466 kts 324°
2026-05-06 17:45 12.33867 -70.90414 39961 ft 466 kts 324°
2026-05-06 17:46 12.39233 -70.94153 39959 ft 466 kts 324°
2026-05-06 17:46 12.44588 -70.97885 39970 ft 465 kts 324°
2026-05-06 17:47 12.49956 -71.01580 39958 ft 465 kts 324°
2026-05-06 17:47 12.55373 -71.05220 39971 ft 465 kts 325°
2026-05-06 17:48 12.60756 -71.08818 39988 ft 466 kts 325°
2026-05-06 17:48 12.66193 -71.12448 39981 ft 465 kts 325°
2026-05-06 17:49 12.71620 -71.16071 39974 ft 465 kts 325°
2026-05-06 17:49 12.77042 -71.19691 39986 ft 465 kts 325°
2026-05-06 17:50 12.82460 -71.23313 39973 ft 465 kts 325°
2026-05-06 17:50 12.87829 -71.26903 39978 ft 464 kts 325°
2026-05-06 17:51 12.93250 -71.30530 39982 ft 465 kts 325°
2026-05-06 17:51 12.98658 -71.34149 39970 ft 464 kts 324°
2026-05-06 17:52 13.04054 -71.37762 39980 ft 464 kts 324°
2026-05-06 17:52 13.09465 -71.41386 39977 ft 464 kts 324°
2026-05-06 17:53 13.14865 -71.45004 39969 ft 464 kts 324°
2026-05-06 17:53 13.20273 -71.48629 39983 ft 464 kts 324°
2026-05-06 17:54 13.25661 -71.52243 39971 ft 463 kts 324°
2026-05-06 17:54 13.31051 -71.55861 39974 ft 463 kts 324°
2026-05-06 17:55 13.36454 -71.59490 39982 ft 463 kts 324°
2026-05-06 17:55 13.41803 -71.63084 39969 ft 462 kts 324°
2026-05-06 17:56 13.47179 -71.66695 39979 ft 462 kts 324°
2026-05-06 17:56 13.52560 -71.70311 39978 ft 462 kts 324°
2026-05-06 17:57 13.57922 -71.73920 39969 ft 460 kts 324°
2026-05-06 17:57 13.63289 -71.77534 39983 ft 461 kts 324°
2026-05-06 17:58 13.68646 -71.81143 39974 ft 460 kts 324°
2026-05-06 17:58 13.74000 -71.84753 39975 ft 460 kts 324°
2026-05-06 17:59 13.79358 -71.88367 39985 ft 460 kts 324°
2026-05-06 17:59 13.84677 -71.91955 39972 ft 460 kts 324°
2026-05-06 18:00 13.90034 -71.95560 39982 ft 460 kts 324°
2026-05-06 18:00 13.95393 -71.99161 39984 ft 460 kts 324°
2026-05-06 18:01 14.00754 -72.02764 39974 ft 460 kts 324°
2026-05-06 18:01 14.06108 -72.06363 39988 ft 460 kts 324°
2026-05-06 18:02 14.11473 -72.09972 39983 ft 460 kts 324°
2026-05-06 18:02 14.16831 -72.13578 39980 ft 460 kts 324°
2026-05-06 18:03 14.22185 -72.17182 39992 ft 459 kts 324°
2026-05-06 18:03 14.27547 -72.20793 39982 ft 460 kts 324°
2026-05-06 18:04 14.32896 -72.24409 39989 ft 460 kts 324°
2026-05-06 18:04 14.38233 -72.28048 39995 ft 459 kts 324°
2026-05-06 18:05 14.43553 -72.31687 39981 ft 459 kts 324°
2026-05-06 18:05 14.48834 -72.35302 39989 ft 459 kts 324°
2026-05-06 18:06 14.54157 -72.38948 39993 ft 459 kts 324°
2026-05-06 18:06 14.59479 -72.42596 39984 ft 458 kts 324°
2026-05-06 18:07 14.63894 -72.45614 39995 ft 458 kts 324°
2026-05-06 18:07 14.69210 -72.49245 39996 ft 459 kts 325°
2026-05-06 18:08 14.74527 -72.52876 39987 ft 458 kts 325°
2026-05-06 18:08 14.79838 -72.56504 40001 ft 458 kts 325°
2026-05-06 18:09 14.85147 -72.60134 39997 ft 457 kts 325°
2026-05-06 18:09 14.90459 -72.63768 39994 ft 457 kts 325°
2026-05-06 18:10 14.95754 -72.67392 40007 ft 457 kts 325°
2026-05-06 18:10 15.01057 -72.71024 39998 ft 457 kts 325°
2026-05-06 18:11 15.06352 -72.74653 40001 ft 456 kts 325°
2026-05-06 18:11 15.11655 -72.78291 39995 ft 457 kts 325°
2026-05-06 18:12 15.16957 -72.81928 39993 ft 457 kts 326°
2026-05-06 18:12 15.22252 -72.85564 40006 ft 457 kts 326°
2026-05-06 18:13 15.27546 -72.89199 39996 ft 457 kts 326°
2026-05-06 18:13 15.32841 -72.92840 40000 ft 456 kts 326°
2026-05-06 18:14 15.38133 -72.96480 39984 ft 456 kts 326°
2026-05-06 18:14 15.43383 -73.00092 39988 ft 456 kts 326°
2026-05-06 18:15 15.48656 -73.03724 39995 ft 456 kts 326°
2026-05-06 18:15 15.53953 -73.07372 39986 ft 456 kts 326°
2026-05-06 18:16 15.59238 -73.11008 39995 ft 456 kts 326°
2026-05-06 18:16 15.64530 -73.14649 40001 ft 456 kts 326°
2026-05-06 18:17 15.69814 -73.18286 39990 ft 456 kts 326°
2026-05-06 18:17 15.75107 -73.21933 40003 ft 457 kts 326°
2026-05-06 18:18 15.80399 -73.25582 39996 ft 459 kts 327°
2026-05-06 18:18 15.85727 -73.29255 39975 ft 459 kts 327°
2026-05-06 18:19 15.91007 -73.32897 39969 ft 459 kts 327°
2026-05-06 18:19 15.96324 -73.36570 39983 ft 459 kts 327°
2026-05-06 18:20 16.01648 -73.40249 39976 ft 457 kts 328°
2026-05-06 18:20 16.06929 -73.43901 39975 ft 456 kts 328°
2026-05-06 18:21 16.12220 -73.47559 39989 ft 457 kts 328°
2026-05-06 18:21 16.17510 -73.51220 39976 ft 457 kts 328°
2026-05-06 18:22 16.22801 -73.54889 39986 ft 457 kts 328°
2026-05-06 18:22 16.28086 -73.58553 39989 ft 457 kts 328°
2026-05-06 18:23 16.33384 -73.62227 39979 ft 457 kts 328°
2026-05-06 18:23 16.38678 -73.65883 39993 ft 457 kts 328°
2026-05-06 18:24 16.43973 -73.69536 39990 ft 456 kts 328°
2026-05-06 18:24 16.49228 -73.73158 39985 ft 455 kts 328°
2026-05-06 18:25 16.54512 -73.76804 39999 ft 456 kts 328°
2026-05-06 18:25 16.59800 -73.80456 39990 ft 455 kts 328°
2026-05-06 18:26 16.65066 -73.84093 39991 ft 454 kts 328°
2026-05-06 18:26 16.70340 -73.87736 40002 ft 454 kts 328°
2026-05-06 18:27 16.75609 -73.91379 39989 ft 453 kts 328°
2026-05-06 18:27 16.80858 -73.95011 39999 ft 452 kts 328°
2026-05-06 18:28 16.86093 -73.98638 40001 ft 451 kts 328°
2026-05-06 18:28 16.91325 -74.02265 39990 ft 452 kts 328°
2026-05-06 18:29 16.96562 -74.05897 40005 ft 451 kts 328°
2026-05-06 18:29 17.01791 -74.09525 39997 ft 450 kts 328°
2026-05-06 18:30 17.07000 -74.13144 39999 ft 450 kts 328°
2026-05-06 18:30 17.12224 -74.16775 40008 ft 449 kts 328°
2026-05-06 18:31 17.17423 -74.20389 39996 ft 448 kts 328°
2026-05-06 18:31 17.22611 -74.24001 40008 ft 448 kts 328°
2026-05-06 18:32 17.27791 -74.27608 40005 ft 447 kts 328°
2026-05-06 18:32 17.32932 -74.31191 39998 ft 446 kts 328°
2026-05-06 18:33 17.38093 -74.34790 40012 ft 446 kts 328°
2026-05-06 18:33 17.43257 -74.38395 40004 ft 446 kts 328°
2026-05-06 18:34 17.48424 -74.42003 40004 ft 446 kts 328°
2026-05-06 18:34 17.53580 -74.45604 40013 ft 445 kts 328°
2026-05-06 18:35 17.58726 -74.49201 40001 ft 445 kts 328°
2026-05-06 18:35 17.63873 -74.52803 40011 ft 445 kts 328°
2026-05-06 18:36 17.69030 -74.56414 40011 ft 445 kts 328°
2026-05-06 18:36 17.74175 -74.60019 40002 ft 445 kts 328°
2026-05-06 18:37 17.78456 -74.63021 40014 ft 445 kts 328°
2026-05-06 18:37 17.84467 -74.67238 40008 ft 445 kts 328°
2026-05-06 18:38 17.89616 -74.70855 40009 ft 445 kts 328°
2026-05-06 18:38 17.94759 -74.74471 40034 ft 445 kts 328°
2026-05-06 18:39 17.99919 -74.78100 40047 ft 446 kts 328°
2026-05-06 18:40 18.07591 -74.83499 40033 ft 440 kts 328°
2026-05-06 18:40 18.12656 -74.87066 40049 ft 442 kts 328°
2026-05-06 18:41 18.17774 -74.90673 40037 ft 442 kts 328°
2026-05-06 18:41 18.22894 -74.94287 40044 ft 443 kts 328°
2026-05-06 18:42 18.27998 -74.97891 40056 ft 442 kts 328°
2026-05-06 18:42 18.33108 -75.01501 40052 ft 442 kts 328°
2026-05-06 18:43 18.38214 -75.05111 40047 ft 442 kts 328°
2026-05-06 18:43 18.43329 -75.08730 40061 ft 443 kts 328°
2026-05-06 18:44 18.48446 -75.12355 40049 ft 443 kts 328°
2026-05-06 18:44 18.53559 -75.15985 40055 ft 443 kts 328°
2026-05-06 18:45 18.58552 -75.19727 40060 ft 443 kts 326°
2026-05-06 18:45 18.63538 -75.23565 40057 ft 443 kts 326°
2026-05-06 18:46 18.68509 -75.27421 40071 ft 444 kts 326°
2026-05-06 18:46 18.73480 -75.31287 40062 ft 444 kts 326°
2026-05-06 18:47 18.78445 -75.35146 40064 ft 442 kts 326°
2026-05-06 18:47 18.83396 -75.38998 40074 ft 443 kts 326°
2026-05-06 18:48 18.88316 -75.42834 40062 ft 443 kts 326°
2026-05-06 18:48 18.93272 -75.46700 40071 ft 442 kts 326°
2026-05-06 18:49 18.98227 -75.50569 40074 ft 443 kts 326°
2026-05-06 18:49 19.03176 -75.54437 40063 ft 442 kts 326°
2026-05-06 18:50 19.08123 -75.58307 40077 ft 442 kts 326°
2026-05-06 18:50 19.13075 -75.62182 40073 ft 442 kts 326°
2026-05-06 18:51 19.18003 -75.66040 40068 ft 441 kts 326°
2026-05-06 18:51 19.22946 -75.69912 40082 ft 442 kts 326°
2026-05-06 18:52 19.27843 -75.73754 40071 ft 440 kts 326°
2026-05-06 18:52 19.32794 -75.77639 40075 ft 440 kts 326°
2026-05-06 18:53 19.37680 -75.81476 40083 ft 440 kts 326°
2026-05-06 18:53 19.42600 -75.85343 40069 ft 440 kts 326°
2026-05-06 18:54 19.47518 -75.89213 40075 ft 440 kts 326°
2026-05-06 18:54 19.52428 -75.93081 40081 ft 440 kts 326°
2026-05-06 18:55 19.57339 -75.96953 40070 ft 440 kts 326°
2026-05-06 18:55 19.61419 -76.00171 40079 ft 440 kts 326°
2026-05-06 18:56 19.66339 -76.04053 40083 ft 441 kts 326°
2026-05-06 18:56 19.71266 -76.07943 40071 ft 441 kts 326°
2026-05-06 18:57 19.76186 -76.11834 40084 ft 441 kts 326°
2026-05-06 18:57 19.81093 -76.15716 40077 ft 440 kts 326°
2026-05-06 18:58 19.86001 -76.19602 40074 ft 440 kts 326°
2026-05-06 18:58 19.90909 -76.23491 40084 ft 440 kts 326°
2026-05-06 18:59 19.95816 -76.27383 40071 ft 440 kts 325°
2026-05-06 18:59 20.00734 -76.31289 40077 ft 441 kts 325°
2026-05-06 19:00 20.05609 -76.35163 40074 ft 439 kts 325°
2026-05-06 19:00 20.10506 -76.39056 40065 ft 440 kts 325°
2026-05-06 19:01 20.15410 -76.42957 40076 ft 439 kts 325°
2026-05-06 19:01 20.20300 -76.46851 40064 ft 439 kts 325°
2026-05-06 19:02 20.25191 -76.50750 40062 ft 439 kts 325°
2026-05-06 19:02 20.30086 -76.54654 40071 ft 440 kts 325°
2026-05-06 19:03 20.34980 -76.58561 40057 ft 439 kts 325°
2026-05-06 19:03 20.39877 -76.62471 40063 ft 439 kts 325°
2026-05-06 19:04 20.44775 -76.66377 40064 ft 439 kts 325°
2026-05-06 19:04 20.49676 -76.70285 40054 ft 440 kts 325°
2026-05-06 19:05 20.54580 -76.74198 40065 ft 440 kts 325°
2026-05-06 19:05 20.59478 -76.78110 40059 ft 440 kts 325°
2026-05-06 19:06 20.64378 -76.82028 40054 ft 440 kts 325°
2026-05-06 19:06 20.69275 -76.85946 40067 ft 440 kts 325°
2026-05-06 19:07 20.74141 -76.89842 40056 ft 440 kts 325°
2026-05-06 19:07 20.79031 -76.93763 40061 ft 440 kts 325°
2026-05-06 19:08 20.83931 -76.97693 40065 ft 440 kts 325°
2026-05-06 19:08 20.88824 -77.01621 40055 ft 440 kts 325°
2026-05-06 19:09 20.93715 -77.05547 40068 ft 439 kts 325°
2026-05-06 19:09 20.98605 -77.09479 40066 ft 440 kts 324°
2026-05-06 19:10 21.03494 -77.13413 40062 ft 439 kts 324°
2026-05-06 19:10 21.08345 -77.17318 40076 ft 439 kts 324°
2026-05-06 19:11 21.13233 -77.21257 40068 ft 439 kts 324°
2026-05-06 19:11 21.18109 -77.25190 40071 ft 439 kts 324°
2026-05-06 19:12 21.22988 -77.29131 40082 ft 438 kts 324°
2026-05-06 19:12 21.27851 -77.33065 40070 ft 438 kts 324°
2026-05-06 19:13 21.32712 -77.36998 40081 ft 438 kts 324°
2026-05-06 19:13 21.37576 -77.40933 40081 ft 438 kts 324°
2026-05-06 19:14 21.42447 -77.44880 40073 ft 438 kts 324°
2026-05-06 19:14 21.47287 -77.48814 40086 ft 437 kts 324°
2026-05-06 19:15 21.52140 -77.52765 40081 ft 437 kts 324°
2026-05-06 19:15 21.56984 -77.56710 40077 ft 437 kts 324°
2026-05-06 19:16 21.61794 -77.60629 40089 ft 437 kts 324°
2026-05-06 19:16 21.66643 -77.64581 40079 ft 437 kts 324°
2026-05-06 19:17 21.71481 -77.68527 40080 ft 436 kts 324°
2026-05-06 19:17 21.76322 -77.72482 40089 ft 437 kts 324°
2026-05-06 19:18 21.81162 -77.76439 40075 ft 437 kts 324°
2026-05-06 19:18 21.85992 -77.80391 40056 ft 437 kts 324°
2026-05-06 19:19 21.90824 -77.84358 40048 ft 436 kts 324°
2026-05-06 19:19 21.95648 -77.88337 40062 ft 437 kts 324°
2026-05-06 19:20 22.00476 -77.92327 40057 ft 437 kts 324°
2026-05-06 19:20 22.05262 -77.96285 40053 ft 437 kts 324°
2026-05-06 19:21 22.10081 -78.00275 40066 ft 437 kts 324°
2026-05-06 19:21 22.14902 -78.04269 40056 ft 437 kts 324°
2026-05-06 19:22 22.19714 -78.08260 40062 ft 436 kts 324°
2026-05-06 19:22 22.24530 -78.12258 40071 ft 437 kts 324°
2026-05-06 19:23 22.29343 -78.16257 40059 ft 436 kts 324°
2026-05-06 19:23 22.34158 -78.20264 40069 ft 437 kts 324°
2026-05-06 19:24 22.38983 -78.24278 40072 ft 438 kts 324°
2026-05-06 19:24 22.43802 -78.28292 40062 ft 437 kts 324°
2026-05-06 19:25 22.48612 -78.32303 40077 ft 437 kts 323°
2026-05-06 19:25 22.53430 -78.36312 40070 ft 437 kts 324°
2026-05-06 19:26 22.58223 -78.40294 40063 ft 437 kts 324°
2026-05-06 19:26 22.63056 -78.44307 40078 ft 438 kts 323°
2026-05-06 19:27 22.67883 -78.48322 40067 ft 438 kts 323°
2026-05-06 19:27 22.72714 -78.52344 40072 ft 437 kts 323°
2026-05-06 19:28 22.78029 -78.55433 40076 ft 436 kts 342°
2026-05-06 19:28 22.83915 -78.57101 40083 ft 438 kts 346°
2026-05-06 19:29 22.89878 -78.58443 40066 ft 437 kts 348°
2026-05-06 19:29 22.95860 -78.59640 40078 ft 438 kts 348°
2026-05-06 19:30 23.01866 -78.60800 40078 ft 438 kts 348°
2026-05-06 19:30 23.07863 -78.61944 40070 ft 438 kts 348°
2026-05-06 19:31 23.13819 -78.63079 40086 ft 438 kts 348°
2026-05-06 19:31 23.22868 -78.64802 40075 ft 438 kts 348°
2026-05-06 19:32 23.28836 -78.65940 40083 ft 438 kts 348°
2026-05-06 19:32 23.34827 -78.67081 40086 ft 437 kts 348°
2026-05-06 19:33 23.40815 -78.68221 40076 ft 437 kts 348°
2026-05-06 19:33 23.46805 -78.69367 40089 ft 437 kts 348°
2026-05-06 19:34 23.52800 -78.70516 40083 ft 437 kts 348°
2026-05-06 19:34 23.58799 -78.71665 40081 ft 437 kts 348°
2026-05-06 19:35 23.64789 -78.72813 40092 ft 437 kts 348°
2026-05-06 19:35 23.70742 -78.73955 40081 ft 437 kts 348°
2026-05-06 19:36 23.76737 -78.75104 40087 ft 437 kts 348°
2026-05-06 19:36 23.82730 -78.76255 40092 ft 437 kts 348°
2026-05-06 19:37 23.88721 -78.77407 40081 ft 437 kts 348°
2026-05-06 19:37 23.93739 -78.78379 40089 ft 437 kts 347°
2026-05-06 19:38 23.97531 -78.79774 40101 ft 435 kts 336°
2026-05-06 19:38 24.00300 -78.81122 40102 ft 435 kts 334°
2026-05-06 19:38 24.05745 -78.83979 40081 ft 432 kts 332°
2026-05-06 19:39 24.11028 -78.87124 40090 ft 432 kts 329°
2026-05-06 19:39 24.16221 -78.90439 40093 ft 432 kts 329°
2026-05-06 19:40 24.21389 -78.93814 40082 ft 432 kts 328°
2026-05-06 19:40 24.26548 -78.97209 40095 ft 432 kts 328°
2026-05-06 19:41 24.31695 -79.00607 40089 ft 432 kts 328°
2026-05-06 19:41 24.36813 -79.03991 40085 ft 432 kts 328°
2026-05-06 19:42 24.39389 -79.05695 39968 ft 432 kts 328°
2026-05-06 19:42 24.41964 -79.07399 39491 ft 432 kts 328°
2026-05-06 19:42 24.44513 -79.09086 39019 ft 426 kts 328°
2026-05-06 19:42 24.47030 -79.10752 38544 ft 420 kts 328°
2026-05-06 19:43 24.49523 -79.12406 38119 ft 415 kts 328°
2026-05-06 19:43 24.51988 -79.14046 37651 ft 416 kts 328°
2026-05-06 19:43 24.54477 -79.15704 37112 ft 421 kts 328°
2026-05-06 19:43 24.56145 -79.16817 36704 ft 424 kts 328°
2026-05-06 19:44 24.58685 -79.18511 36064 ft 428 kts 328°
2026-05-06 19:44 24.61236 -79.20214 35418 ft 429 kts 328°
2026-05-06 19:44 24.63788 -79.21917 34771 ft 430 kts 328°
2026-05-06 19:44 24.66342 -79.23623 34124 ft 430 kts 329°
2026-05-06 19:45 24.68895 -79.25330 33479 ft 430 kts 329°
2026-05-06 19:45 24.71459 -79.27044 32831 ft 431 kts 329°
2026-05-06 19:45 24.74026 -79.28762 32185 ft 434 kts 329°
2026-05-06 19:45 24.76623 -79.30500 31534 ft 438 kts 329°
2026-05-06 19:46 24.79235 -79.32249 30876 ft 442 kts 329°
2026-05-06 19:46 24.81854 -79.34003 30209 ft 436 kts 329°
2026-05-06 19:46 24.84414 -79.35719 29554 ft 427 kts 329°
2026-05-06 19:46 24.86927 -79.37404 28921 ft 419 kts 329°
2026-05-06 19:47 24.89390 -79.39058 28308 ft 411 kts 329°
2026-05-06 19:47 24.91815 -79.40686 27709 ft 403 kts 329°
2026-05-06 19:47 24.94162 -79.42263 27130 ft 396 kts 329°
2026-05-06 19:47 24.96499 -79.43833 26555 ft 390 kts 329°
2026-05-06 19:48 24.98795 -79.45377 25989 ft 384 kts 329°
2026-05-06 19:48 25.01060 -79.46899 25432 ft 378 kts 328°
2026-05-06 19:48 25.03286 -79.48397 24884 ft 373 kts 328°
2026-05-06 19:48 25.05483 -79.49877 24344 ft 368 kts 328°
2026-05-06 19:49 25.07662 -79.51343 23810 ft 365 kts 328°
2026-05-06 19:49 25.09826 -79.52800 23282 ft 364 kts 329°
2026-05-06 19:49 25.11991 -79.54259 22751 ft 364 kts 329°
2026-05-06 19:49 25.14140 -79.55707 22221 ft 360 kts 329°
2026-05-06 19:50 25.16270 -79.57143 21696 ft 357 kts 329°
2026-05-06 19:50 25.18379 -79.58567 21175 ft 354 kts 329°
2026-05-06 19:50 25.20474 -79.59981 20658 ft 351 kts 329°
2026-05-06 19:50 25.22554 -79.61387 20145 ft 349 kts 329°
2026-05-06 19:51 25.24619 -79.62782 19636 ft 347 kts 329°
2026-05-06 19:51 25.26665 -79.64165 19132 ft 343 kts 329°
2026-05-06 19:51 25.28694 -79.65537 18631 ft 341 kts 329°
2026-05-06 19:51 25.30707 -79.66899 18135 ft 339 kts 330°
2026-05-06 19:52 25.32712 -79.68255 17641 ft 336 kts 330°
2026-05-06 19:52 25.34705 -79.69604 17149 ft 335 kts 329°
2026-05-06 19:52 25.36685 -79.70945 16662 ft 334 kts 329°
2026-05-06 19:52 25.38586 -79.72345 16127 ft 335 kts 322°
2026-05-06 19:53 25.40106 -79.74297 15694 ft 334 kts 309°
2026-05-06 19:53 25.41441 -79.76373 15343 ft 329 kts 307°
2026-05-06 19:53 25.42746 -79.78442 15016 ft 328 kts 307°
2026-05-06 19:53 25.44068 -79.80523 14709 ft 332 kts 308°
2026-05-06 19:54 25.45403 -79.82608 14406 ft 332 kts 308°
2026-05-06 19:54 25.46743 -79.84694 14107 ft 331 kts 308°
2026-05-06 19:54 25.48072 -79.86759 13818 ft 328 kts 308°
2026-05-06 19:54 25.49375 -79.88792 13525 ft 321 kts 307°
2026-05-06 19:55 25.50654 -79.90793 13195 ft 315 kts 307°
2026-05-06 19:55 25.51910 -79.92757 12881 ft 310 kts 307°
2026-05-06 19:55 25.53149 -79.94694 12592 ft 305 kts 307°
2026-05-06 19:55 25.54370 -79.96604 12229 ft 302 kts 307°
2026-05-06 19:56 25.55580 -79.98495 11846 ft 301 kts 307°
2026-05-06 19:56 25.56789 -80.00386 11464 ft 299 kts 307°
2026-05-06 19:56 25.57975 -80.02243 11067 ft 299 kts 307°
2026-05-06 19:56 25.59176 -80.04122 10657 ft 299 kts 307°
2026-05-06 19:57 25.60375 -80.05999 10289 ft 297 kts 306°
2026-05-06 19:57 25.61561 -80.07859 10028 ft 292 kts 306°
2026-05-06 19:57 25.62652 -80.09569 9779 ft 288 kts 306°
2026-05-06 19:57 25.63806 -80.11378 9429 ft 287 kts 306°
2026-05-06 19:58 25.64950 -80.13186 9155 ft 284 kts 304°
2026-05-06 19:58 25.65896 -80.15100 8831 ft 283 kts 297°
2026-05-06 19:58 25.66670 -80.16871 8566 ft 281 kts 296°
2026-05-06 19:58 25.67503 -80.18818 8322 ft 277 kts 295°
2026-05-06 19:59 25.68320 -80.20736 8114 ft 273 kts 295°
2026-05-06 19:59 25.69122 -80.22623 7915 ft 269 kts 295°
2026-05-06 19:59 25.69919 -80.24498 7667 ft 269 kts 295°
2026-05-06 19:59 25.70720 -80.26385 7380 ft 271 kts 295°
2026-05-06 20:00 25.71181 -80.28410 7004 ft 274 kts 273°
2026-05-06 20:00 25.71131 -80.30506 6771 ft 271 kts 267°
2026-05-06 20:00 25.71026 -80.32577 6477 ft 271 kts 266°
2026-05-06 20:00 25.70919 -80.34668 6185 ft 270 kts 266°
2026-05-06 20:01 25.70818 -80.36718 5929 ft 268 kts 266°
2026-05-06 20:01 25.70719 -80.38797 5676 ft 266 kts 267°
2026-05-06 20:01 25.70626 -80.40824 5399 ft 266 kts 267°
2026-05-06 20:01 25.70532 -80.42878 5159 ft 265 kts 267°
2026-05-06 20:02 25.70508 -80.44894 4920 ft 263 kts 277°
2026-05-06 20:02 25.71264 -80.46689 4766 ft 256 kts 309°
2026-05-06 20:02 25.72703 -80.47756 4691 ft 248 kts 341°
2026-05-06 20:02 25.74380 -80.47824 4613 ft 241 kts 13°
2026-05-06 20:03 25.75787 -80.46909 4501 ft 232 kts 45°
2026-05-06 20:03 25.76462 -80.45419 4242 ft 206 kts 76°
2026-05-06 20:03 25.76618 -80.43897 3933 ft 193 kts 83°
2026-05-06 20:03 25.77027 -80.42522 3412 ft 185 kts 66°
2026-05-06 20:04 25.77720 -80.41347 2947 ft 178 kts 54°
2026-05-06 20:04 25.78455 -80.40246 2601 ft 177 kts 55°
2026-05-06 20:04 25.79119 -80.39121 2173 ft 170 kts 59°
2026-05-06 20:04 25.79630 -80.37967 1705 ft 164 kts 69°
2026-05-06 20:05 25.79891 -80.36784 1319 ft 152 kts 83°
2026-05-06 20:05 25.79954 -80.35658 1073 ft 144 kts 90°
2026-05-06 20:05 25.79988 -80.34565 826 ft 139 kts 91°
2026-05-06 20:05 25.80018 -80.33500 633 ft 137 kts 90°
2026-05-06 20:06 25.80042 -80.32447 443 ft 136 kts 91°
2026-05-06 20:06 25.80053 -80.31402 257 ft 134 kts 92°
2026-05-06 20:06 25.80068 -80.30355 144 ft 140 kts 91°
2026-05-06 20:06 25.80113 -80.29265 43 ft 135 kts 90°
2026-05-06 20:07 25.80142 -80.28326 22 ft 109 kts 87°
2026-05-06 20:07 25.80173 -80.27655 21 ft 48 kts 100°
2026-05-06 20:07 25.80085 -80.27507 21 ft 19 kts 156°
2026-05-06 20:07 25.79963 -80.27526 21 ft 20 kts 206°
2026-05-06 20:08 25.79858 -80.27529 21 ft 17 kts 176°
2026-05-06 20:08 25.79798 -80.27526 21 ft 0 kts 178°